This demonstration page uses our WeatherBlox Daily Observations layout. Learn more.

Left ArrowRight Arrow

34.02893, -84.19858

Hourly Observations for March 28, 2022

Temp ( °F °C ) Dew Point ( °F °C ) Humidity (%) Winds ( mph kmh ) Pressure ( in mb ) Visibility ( mi km ) Precip ( " mm )
12:53 am 00:53 Clear 50 10 18 -7.8 28 28 W 6 9 30.09 1019 10 16 0.00 0.00
1:53 am 01:53 Clear 47 8.3 19 -7.2 33 33 NW 7 11 30.09 1019 10 16 0.00 0.00
2:53 am 02:53 Clear 46 7.8 20 -6.7 35 35 NW 6 9 30.08 1019 10 16 0.00 0.00
3:53 am 03:53 Mostly Clear 46 7.8 19 -7.2 34 34 NNW 9 15 30.06 1018 10 16 0.00 0.00
4:53 am 04:53 Clear 44 6.7 19 -7.2 37 37 NNW 10 17 30.06 1018 10 16 0.00 0.00
5:53 am 05:53 Clear 44 6.7 19 -7.2 37 37 NW 7 11 30.08 1019 10 16 0.00 0.00
6:53 am 06:53 Clear 42 5.6 21 -6.1 43 43 W 6 9 30.09 1019 10 16 0.00 0.00
7:53 am 07:53 Sunny 41 5 22 -5.6 47 47 W 5 7 30.11 1020 10 16 0.00 0.00
8:53 am 08:53 Sunny 46 7.8 21 -6.1 37 37 NW 7 11 30.13 1020 10 16 0.00 0.00
9:53 am 09:53 Sunny 50 10 21 -6.1 32 32 NW 6 9 30.14 1021 10 16 0.00 0.00
10:53 am 10:53 Sunny 55 12.8 14 -10 20 20 NW 9 15 30.15 1021 10 16 0.00 0.00
11:53 am 11:53 Sunny 57 13.9 16 -8.9 20 20 NNW 14 22 30.16 1021 10 16 0.00 0.00
12:53 pm 12:53 Sunny 60 15.6 22 -5.6 23 23 NNW 7 11 30.14 1021 10 16 0.00 0.00
1:53 pm 13:53 Mostly Cloudy 61 16.1 22 -5.6 22 22 WNW 13 20 30.14 1021 10 16 0.00 0.00
2:53 pm 14:53 Partly Cloudy 62 16.7 24 -4.4 23 23 NW 8 13 30.11 1020 10 16 0.00 0.00
3:53 pm 15:53 Sunny 64 17.8 25 -3.9 23 23 NW 13 20 30.10 1019 10 16 0.00 0.00
4:53 pm 16:53 Mostly Cloudy 64 17.8 27 -2.8 25 25 WNW 13 20 30.10 1019 10 16 0.00 0.00
5:53 pm 17:53 Sunny 63 17.2 28 -2.2 27 27 WNW 12 19 30.10 1019 10 16 0.00 0.00
6:53 pm 18:53 Sunny 61 16.1 27 -2.8 27 27 NW 9 15 30.11 1020 10 16 0.00 0.00
7:53 pm 19:53 Sunny 57 13.9 27 -2.8 32 32 NNW 9 15 30.12 1020 10 16 0.00 0.00
8:53 pm 20:53 Clear 52 11.1 29 -1.7 41 41 N 3 6 30.13 1020 10 16 0.00 0.00
9:53 pm 21:53 Clear 50 10 29 -1.7 44 44 N 5 7 30.15 1021 10 16 0.00 0.00
10:53 pm 22:53 Clear 48 8.9 30 -1.1 50 50 N 6 9 30.14 1021 10 16 0.00 0.00
11:53 pm 23:53 Clear 48 8.9 28 -2.2 46 46 NNE 5 7 30.14 1021 10 16 0.00 0.00

Powered by AerisWeather